User: anonymous   Login
Location: Oshawa
(43.9000°N, 78.8670°W)
Time: 20:26:36
(UTC-04:00)
Language:

Cosmos 1805 Rocket - Orbit

View from above orbital plane
View from above orbital plane
View from above satellite
View from above satellite

Ground track
Ground track

The orbit data is extracted from the following two-line orbital elements,

1 17192U 86097B   14303.95795263  .00000606  00000-0  71419-4 0  5957
2 17192 082.5071 077.5366 0017428 030.9558 104.8191 14.83051615506336
Epoch (UTC): 30 October 2014 22:59:27
Eccentricity: 0.0017428
inclination: 82.5071°
perigee height: 607 km
apogee height: 632 km
right ascension of ascending node: 77.5366°
argument of perigee: 30.9558°
revolutions per day: 14.83051615
mean anomaly at epoch: 104.8191°
orbit number at epoch: 50633

The dashed part of the orbit path shows where the satellite is in the earth's shadow,  

DLR